Location: Boda
(47.1872°N, 9.5454°E)
Time: 08:22:25
(UTC+00:00)

Cosmos 2056 Rocket - Pass Details

Date: 14 May 2021
Orbit: 741 x 801 km, 74.0° (Epoch: 16 June)

Event Time Altitude Azimuth Distance (km) Brightness Sun altitude
Exits shadow 02:12:37 18° 206° (SSW) 1,742 4.8 -13.4°
Maximum altitude 02:16:23 81° 292° (WNW) 757 3.4 -13.0°
Drops below altitude 10° 02:21:32 10° 21° (NNE) 2,273 7.1 -12.4°
Sets 02:23:55 0° 22° (NNE) 3,207 8.1 -12.1°
